This is the latest recevied weather packets stored in our database for station/object DL1GHN-6. If no packets are shown the sender has not sent any weather packets the latest 10 day(s).
| Time | Temp. | Humidity | Pressure | Rain* | Wind** | Luminosity | Snow |
|---|---|---|---|---|---|---|---|
| 1778008818 | 14.44° C | 87% | 1007.8 hPa | 0 mm | - | 0 W/m² | - |
| 1778008519 | 14.44° C | 87% | 1007.8 hPa | 0 mm | - | 0 W/m² | - |
| 1778008218 | 14.44° C | 87% | 1007.6 hPa | 0 mm | - | 0 W/m² | - |
| 1778007918 | 14.44° C | 87% | 1007.6 hPa | 0 mm | - | 0 W/m² | - |
| 1778007619 | 14.44° C | 87% | 1007.6 hPa | 0 mm | - | 0 W/m² | - |
| 1778007319 | 14.44° C | 87% | 1007.6 hPa | 0 mm | - | 0 W/m² | - |
| 1778007018 | 14.44° C | 86% | 1007.6 hPa | 0 mm | - | 0 W/m² | - |
| 1778006718 | 14.44° C | 86% | 1007.6 hPa | 0 mm | - | 0 W/m² | - |
| 1778006419 | 14.44° C | 86% | 1007.6 hPa | 0 mm | - | 0 W/m² | - |
| 1778006118 | 14.44° C | 86% | 1007.6 hPa | 0 mm | - | 0 W/m² | - |
| 1778005818 | 14.44° C | 86% | 1007.6 hPa | 0 mm | - | 5 W/m² | - |
| 1778005518 | 14.44° C | 87% | 1007.5 hPa | 0 mm | - | 7 W/m² | - |
| 1778005217 | 14.44° C | 87% | 1007.4 hPa | 0 mm | - | 9 W/m² | - |
| 1778004917 | 14.44° C | 87% | 1007.3 hPa | 0 mm | - | 12 W/m² | - |
| 1778004617 | 14.44° C | 87% | 1007.2 hPa | 0 mm | - | 14 W/m² | - |
| 1778004317 | 14.44° C | 86% | 1007.3 hPa | 0 mm | - | 14 W/m² | - |
| 1778004017 | 15° C | 86% | 1007.4 hPa | 0 mm | - | 14 W/m² | - |
| 1778003718 | 15° C | 86% | 1007.3 hPa | 0 mm | - | 23 W/m² | - |
| 1778003417 | 15° C | 86% | 1007.3 hPa | 0 mm | - | 35 W/m² | - |
| 1778003118 | 15° C | 87% | 1007.4 hPa | 0 mm | - | 49 W/m² | - |
| 1778002817 | 15° C | 87% | 1007.4 hPa | 0 mm | - | 49 W/m² | - |
| 1778002519 | 15° C | 87% | 1007.4 hPa | 0 mm | - | 49 W/m² | - |
| 1778002219 | 15° C | 87% | 1007.5 hPa | 0 mm | - | 54 W/m² | - |
| 1778001919 | 14.44° C | 87% | 1007.5 hPa | 0 mm | - | 58 W/m² | - |
| 1778001618 | 14.44° C | 87% | 1007.5 hPa | 0 mm | - | 69 W/m² | - |
* Rain latest hour (hover to see other rain measurements)
** Current wind speed in m/s (hover to see current wind gust speed)